Flag for Canada Weather past 2 weeks in Rainy River, Ontario, Canada

Now
74 °F

Scattered clouds.


Feels Like: 77 °F
Forecast: 47 / 76 °F
Wind: 5 mph from Southwest

Location: Baudette International Airport

Current Time: Aug 27, 2015 at 2:51:40 PM

Latest Report: Aug 27, 2015 at 1:53 PM


Visibility: 10 mi

Pressure: 29.98 "Hg

Humidity: 53%

Dew point: 56 °F

Location of Rainy RiverLocation

Historic Weather in Rainy River — Graph

°F

Rainy River temperature yesterday

Maximum temperature yesterday: 72 °F (at 2:53 PM)
Minimum temperature yesterday: 40 °F (at 5:53 AM)
Average temperature yesterday: 57 °F

Past Weeks' High & Low Weather Summary

 TemperatureHumidityPressure
High89 °F (Aug 14, 3:53 PM)100% (Aug 14, 3:53 AM)30.22 "Hg (Aug 14, 3:53 AM)
Low40 °F (Aug 26, 5:53 AM)39% (Aug 14, 3:53 PM)29.39 "Hg (Aug 22, 7:53 PM)
Average63 °F76%29.89 "Hg
* Reported Aug 12 1:53 PM — Aug 27 1:53 PM, Rainy River, Weather by CustomWeather, © 2015

Note: Actual official high and low records may vary slightly from our data, if they occured in-between our weather recording intervals... More about our weather records

Advertising

Rainy River weather history for previous 24 hours

 ConditionsComfort  
Time TempWeatherWind HumidityBarometerVisibility
1:53 PM
Thu, Aug 27
74 °FScattered clouds.5 mph53%29.98 "Hg10 mi
12:53 PM73 °FSunny.3 mph53%29.99 "Hg10 mi
11:53 AM71 °FSunny.No wind59%30.01 "Hg10 mi
10:53 AM66 °FSunny.5 mph70%30.02 "Hg10 mi
9:53 AM62 °FSunny.7 mph75%30.04 "Hg10 mi
8:53 AM56 °FSunny.3 mph87%30.05 "Hg10 mi
7:53 AM51 °FSunny.3 mph92%30.06 "Hg10 mi
6:53 AM47 °FClear.5 mph97%30.07 "Hg10 mi
5:53 AM48 °FClear.3 mph93%30.08 "Hg10 mi
4:53 AM48 °FClear.No wind93%30.07 "Hg10 mi
3:53 AM49 °FClear.5 mph90%30.05 "Hg10 mi
2:53 AM50 °FClear.3 mph89%30.06 "Hg10 mi
1:53 AM51 °FClear.3 mph86%30.08 "Hg10 mi
12:53 AM51 °FClear.3 mph89%30.10 "Hg10 mi
11:53 PM
Wed, Aug 26
53 °FClear.No wind89%30.10 "Hg10 mi
10:53 PM54 °FClear.No wind93%30.11 "Hg10 mi
9:53 PM56 °FClear.No wind93%30.10 "Hg10 mi
8:53 PM58 °FSunny.No wind90%30.11 "Hg10 mi
7:53 PM63 °FSunny.No wind81%30.09 "Hg10 mi
6:53 PM69 °FSunny.3 mph57%30.11 "Hg10 mi
5:53 PM70 °FSunny.5 mph49%30.12 "Hg10 mi
4:53 PM72 °FSunny.6 mph41%30.13 "Hg10 mi
3:53 PM72 °FSunny.7 mph41%30.14 "Hg10 mi
2:53 PM72 °FSunny.6 mph41%30.16 "Hg10 mi
Weather by CustomWeather, © 2015

See weather overviewHow to use our weather pages